Portada
METAR-TAF:

METAR-TAF

Aeroports :

Neiva, Colòmbia

latitud: 02-58N, longitud: 075-18W, altitud: 439 m

Observació

L'informe es va fer fa 8 hores i 11 minuts, a les 03:00 UTC
Vent 4 kt del Sud
Temperatura 26°C
Humitat 70%
Pressió 1010 hPa
Visibilitat 10 km o més
Escasses núvols a una alçada de 4000 ft
Cel ennuvolat a una alçada de 10000 ft

METAR: SKNV 090300Z 19004KT 9999 FEW040 BKN100 26/20 Q1010 RMK A2984

Hora: 06:11 (11:11 UTC)


TAF: manca

Observacions i pronòstics meteorològics de més de 4000 aeroports (METAR i TAF).

Les estacions disponibles són els punts grocs i vermells al mapa.

Posi el ratolí al punt desitjat per veure el nom de l'estació.

Feu clic per veure les observacions i els pronòstics meteorològics.

Per canviar el mapa: feu clic els botons verds amb una creu de color negre per apropar; al botó verd amb un guió per allunyar la imatge; o en les fletxes verdes per a mapes adjacents.


METAR-TAF: